Change the Weather History Date:

Friday, December 30, 2011

  Actual Average Record
Temperature  
Mean Temperature 65 °F 64 °F  
Max Temperature 80 °F 75 °F 88 °F (1990)
Min Temperature 49 °F 54 °F 32 °F (1909)
Degree Days  
Heating Degree Days 0 4  
Month to date heating degree days 24 69  
Since 1 July heating degree days 28 87  
Cooling Degree Days 0 3  
Month to date cooling degree days 179 118  
Year to date cooling degree days 4273 3981  
Growing Degree Days 15 (Base 50)    
Moisture  
Dew Point 51 °F    
Average Humidity 67    
Maximum Humidity 89    
Minimum Humidity 37    
Precipitation  
Precipitation 0.00 in 0.06 in 1.20 in (1914)
Month to date precipitation 0.38 1.65  
Year to date precipitation 65.79 55.87  
Sea Level Pressure  
Sea Level Pressure 30.12 in    
Wind  
Wind Speed 2 mph (ESE)    
Max Wind Speed 12 mph    
Max Gust Speed 16 mph    
Visibility 10 miles    
Events      
T = Trace of Precipitation, MM = Missing Value Source: NWS Daily Summary

Daily Weather History Graph

Daily Weather History Graph

Search for Another Location

Airport or City:

Trip Planner

Search our weather history database for the weather conditions in past years. The results will help you decide how hot, cold, wet, or windy it might be!

Date:

Astronomy

Dec. 30, 2011 Rise Set
Actual Time 7:15 AM EST 5:44 PM EST
Civil Twilight 6:49 AM EST 6:10 PM EST
Nautical Twilight 6:20 AM EST 6:38 PM EST
Astronomical Twilight 5:52 AM EST 7:07 PM EST
Moon 11:09 AM EST (12/30) 11:39 PM EST (12/30)
Length of Visible Light 11h 20m
Length of Day
10h 29m
Waxing Crescent, 35% of the Moon is Illuminated
Dec 30
Waxing Crescent
Jan 1
First Quarter
Jan 9
Full
Jan 16
Last Quarter
Jan 23
New

Hourly Weather History & Observations

Time (EST) Temp. Dew Point Humidity Pressure Visibility Wind Dir Wind Speed Gust Speed Precip Events Conditions
12:53 AM 52.0 °F 48.0 °F 86% 30.12 in 10.0 mi Calm Calm - N/A   Clear
1:53 AM 51.1 °F 46.0 °F 83% 30.12 in 10.0 mi Calm Calm - N/A   Clear
2:53 AM 51.1 °F 46.9 °F 86% 30.12 in 10.0 mi Calm Calm - N/A   Clear
3:53 AM 51.1 °F 46.9 °F 86% 30.11 in 10.0 mi Calm Calm - N/A   Clear
4:53 AM 51.1 °F 46.9 °F 86% 30.11 in 10.0 mi Calm Calm - N/A   Clear
5:53 AM 51.1 °F 48.0 °F 89% 30.11 in 10.0 mi Calm Calm - N/A   Clear
6:53 AM 51.1 °F 46.9 °F 86% 30.13 in 10.0 mi Calm Calm - N/A   Clear
7:53 AM 52.0 °F 48.9 °F 89% 30.15 in 10.0 mi Calm Calm - N/A   Clear
8:53 AM 57.9 °F 50.0 °F 75% 30.18 in 10.0 mi East 4.6 mph - N/A   Clear
9:53 AM 64.0 °F 52.0 °F 65% 30.19 in 10.0 mi ENE 5.8 mph - N/A   Clear
11:53 AM 73.9 °F 51.1 °F 45% 30.14 in 10.0 mi NE 5.8 mph - N/A   Clear
12:53 PM 75.9 °F 51.1 °F 42% 30.11 in 10.0 mi Calm Calm - N/A   Clear
1:53 PM 77.0 °F 50.0 °F 39% 30.09 in 10.0 mi Calm Calm - N/A   Clear
2:53 PM 78.1 °F 51.1 °F 39% 30.08 in 10.0 mi NW 5.8 mph - N/A   Clear
3:53 PM 79.0 °F 50.0 °F 36% 30.08 in 10.0 mi Calm Calm - N/A   Clear
4:31 PM 75.2 °F 51.8 °F 44% 30.09 in 10.0 mi WSW 10.4 mph 16.1 mph N/A   Partly Cloudy
4:53 PM 75.0 °F 51.1 °F 43% 30.10 in 10.0 mi SW 5.8 mph - N/A   Clear
5:53 PM 71.1 °F 53.1 °F 53% 30.11 in 10.0 mi West 5.8 mph - N/A   Scattered Clouds
6:53 PM 70.0 °F 55.0 °F 59% 30.12 in 10.0 mi Calm Calm - N/A   Overcast
7:53 PM 66.0 °F 54.0 °F 65% 30.13 in 10.0 mi Calm Calm - N/A   Clear
8:53 PM 64.9 °F 55.0 °F 70% 30.14 in 10.0 mi Calm Calm - N/A   Clear
9:53 PM 63.0 °F 55.0 °F 75% 30.15 in 10.0 mi SE 3.5 mph - N/A   Clear
10:53 PM 63.0 °F 55.0 °F 75% 30.16 in 10.0 mi Calm Calm - N/A   Scattered Clouds
11:53 PM 60.1 °F 55.0 °F 83% 30.15 in 10.0 mi Calm Calm - N/A   Clear